When you browse on this site, cookies collect data to enhance your experience and personalize the content and advertising you see.
Visit our Privacy Policy to learn more. By continuing to use the site, you agree to this use of cookies and data.

Meteo orario Brisbane

Oggi, 2 Luglio, Giovedi

Tempo Temperatura Precipitazioni Vento Pressione Umidità
00:00 +14°C° 0 mm 1 m/s 765 mm Hg 81%
01:00 +14°C° 0 mm 1 m/s 764 mm Hg 82%
02:00 +14°C° 0 mm 1 m/s 764 mm Hg 82%
03:00 +13°C° 0 mm 1 m/s 765 mm Hg 83%
04:00 +13°C° 0 mm 1 m/s 764 mm Hg 82%
05:00 +13°C° 0 mm 1 m/s 765 mm Hg 83%
06:00 +13°C° 0 mm 1 m/s 765 mm Hg 84%
07:00 +13°C° 0 mm 1 m/s 765 mm Hg 84%
08:00 +15°C° 0 mm 1 m/s 765 mm Hg 75%
09:00 +18°C° 0 mm 1 m/s 765 mm Hg 66%
10:00 +20°C° 0 mm 1 m/s 765 mm Hg 59%
11:00 +22°C° 0 mm 1 m/s 765 mm Hg 54%
12:00 +23°C° 0 mm 1 m/s 764 mm Hg 48%
13:00 +24°C° 0 mm 1 m/s 764 mm Hg 43%
14:00 +24°C° 0 mm 1 m/s 763 mm Hg 45%
15:00 +23°C° 0 mm 1 m/s 763 mm Hg 48%
16:00 +23°C° 0 mm 1 m/s 763 mm Hg 51%
17:00 +20°C° 0 mm 2 m/s 764 mm Hg 59%
18:00 +18°C° 0 mm 2 m/s 764 mm Hg 67%
19:00 +17°C° 0 mm 2 m/s 764 mm Hg 76%
20:00 +16°C° 0 mm 2 m/s 765 mm Hg 78%
21:00 +16°C° 0 mm 2 m/s 765 mm Hg 80%
22:00 +16°C° 0 mm 2 m/s 765 mm Hg 82%
23:00 +15°C° 0 mm 1 m/s 765 mm Hg 83%

Domani, 3 Luglio, Venerdi

Tempo Temperatura Precipitazioni Vento Pressione Umidità
00:00 +15°C° 0 mm 1 m/s 765 mm Hg 83%
01:00 +14°C° 0 mm 1 m/s 765 mm Hg 84%
02:00 +14°C° 0 mm 1 m/s 765 mm Hg 84%
03:00 +14°C° 0 mm 1 m/s 765 mm Hg 84%
04:00 +14°C° 0 mm 1 m/s 765 mm Hg 84%
05:00 +13°C° 0 mm 1 m/s 765 mm Hg 84%
06:00 +13°C° 0 mm 1 m/s 765 mm Hg 84%
07:00 +13°C° 0 mm 1 m/s 766 mm Hg 84%
08:00 +16°C° 0 mm 1 m/s 766 mm Hg 74%
09:00 +19°C° 0 mm 1 m/s 766 mm Hg 65%
10:00 +21°C° 0 mm 1 m/s 766 mm Hg 55%
11:00 +23°C° 0 mm 1 m/s 765 mm Hg 51%
12:00 +24°C° 0 mm 1 m/s 764 mm Hg 46%
13:00 +25°C° 0 mm 2 m/s 764 mm Hg 41%
14:00 +25°C° 0 mm 2 m/s 763 mm Hg 44%
15:00 +24°C° 0 mm 2 m/s 763 mm Hg 46%
16:00 +24°C° 0 mm 2 m/s 763 mm Hg 49%
17:00 +21°C° 0 mm 2 m/s 763 mm Hg 55%
18:00 +20°C° 0 mm 2 m/s 763 mm Hg 62%
19:00 +18°C° 0 mm 2 m/s 763 mm Hg 69%
20:00 +18°C° 0 mm 2 m/s 763 mm Hg 67%
21:00 +18°C° 0 mm 2 m/s 763 mm Hg 66%
22:00 +18°C° 0 mm 1 m/s 764 mm Hg 65%
23:00 +17°C° 0.1 mm 2 m/s 763 mm Hg 66%

Dopodomani, 4 Luglio, Sabato

Tempo Temperatura Precipitazioni Vento Pressione Umidità
00:00 +17°C° 0.1 mm 2 m/s 763 mm Hg 68%
01:00 +17°C° 0.1 mm 2 m/s 763 mm Hg 69%
02:00 +16°C° 0 mm 3 m/s 763 mm Hg 71%
03:00 +14°C° 0 mm 3 m/s 763 mm Hg 73%
04:00 +13°C° 0 mm 4 m/s 763 mm Hg 74%
05:00 +13°C° 0 mm 4 m/s 763 mm Hg 70%
06:00 +12°C° 0 mm 4 m/s 763 mm Hg 65%
07:00 +10°C° 0 mm 5 m/s 764 mm Hg 61%
08:00 +13°C° 0 mm 5 m/s 764 mm Hg 56%
09:00 +14°C° 0 mm 5 m/s 764 mm Hg 50%
10:00 +15°C° 0 mm 5 m/s 764 mm Hg 45%
11:00 +16°C° 0 mm 5 m/s 763 mm Hg 42%
12:00 +17°C° 0 mm 5 m/s 762 mm Hg 38%
13:00 +20°C° 0 mm 5 m/s 762 mm Hg 35%
14:00 +19°C° 0 mm 5 m/s 762 mm Hg 36%
15:00 +19°C° 0 mm 5 m/s 762 mm Hg 37%
16:00 +19°C° 0 mm 4 m/s 762 mm Hg 38%
17:00 +17°C° 0 mm 4 m/s 762 mm Hg 41%
18:00 +15°C° 0 mm 4 m/s 763 mm Hg 44%
19:00 +13°C° 0 mm 4 m/s 763 mm Hg 46%
20:00 +12°C° 0 mm 4 m/s 763 mm Hg 49%
21:00 +11°C° 0 mm 3 m/s 764 mm Hg 52%
22:00 +11°C° 0 mm 3 m/s 764 mm Hg 55%
23:00 +10°C° 0 mm 3 m/s 764 mm Hg 57%

5 Luglio, Domenica

Tempo Temperatura Precipitazioni Vento Pressione Umidità
00:00 +9°C° 0 mm 3 m/s 764 mm Hg 58%
01:00 +9°C° 0 mm 3 m/s 764 mm Hg 60%
02:00 +9°C° 0 mm 2 m/s 764 mm Hg 61%
03:00 +8°C° 0 mm 2 m/s 764 mm Hg 62%
04:00 +8°C° 0 mm 2 m/s 764 mm Hg 63%
05:00 +8°C° 0 mm 2 m/s 764 mm Hg 64%
06:00 +8°C° 0 mm 2 m/s 765 mm Hg 64%
07:00 +7°C° 0 mm 2 m/s 765 mm Hg 65%
08:00 +10°C° 0 mm 2 m/s 765 mm Hg 58%
09:00 +13°C° 0 mm 2 m/s 765 mm Hg 51%
10:00 +16°C° 0 mm 2 m/s 765 mm Hg 43%
11:00 +17°C° 0 mm 2 m/s 765 mm Hg 40%
12:00 +20°C° 0 mm 1 m/s 764 mm Hg 36%
13:00 +21°C° 0 mm 1 m/s 763 mm Hg 32%
14:00 +21°C° 0 mm 1 m/s 763 mm Hg 33%
15:00 +21°C° 0 mm 1 m/s 764 mm Hg 34%
16:00 +20°C° 0 mm 1 m/s 764 mm Hg 35%
17:00 +19°C° 0 mm 1 m/s 764 mm Hg 41%
18:00 +16°C° 0 mm 1 m/s 765 mm Hg 48%
19:00 +14°C° 0 mm 1 m/s 765 mm Hg 54%
20:00 +14°C° 0 mm 1 m/s 765 mm Hg 58%
21:00 +13°C° 0 mm 1 m/s 766 mm Hg 62%
22:00 +13°C° 0 mm 1 m/s 766 mm Hg 66%
23:00 +12°C° 0 mm 1 m/s 766 mm Hg 67%

6 Luglio, Lunedi

Tempo Temperatura Precipitazioni Vento Pressione Umidità
00:00 +12°C° 0 mm 1 m/s 766 mm Hg 67%
01:00 +11°C° 0 mm 1 m/s 766 mm Hg 68%
02:00 +10°C° 0 mm 2 m/s 766 mm Hg 68%
03:00 +10°C° 0 mm 2 m/s 766 mm Hg 68%
04:00 +10°C° 0 mm 2 m/s 766 mm Hg 68%
05:00 +9°C° 0 mm 2 m/s 767 mm Hg 69%
06:00 +9°C° 0 mm 2 m/s 767 mm Hg 69%
07:00 +9°C° 0 mm 2 m/s 768 mm Hg 70%
08:00 +12°C° 0 mm 2 m/s 768 mm Hg 63%
09:00 +15°C° 0 mm 2 m/s 768 mm Hg 56%
10:00 +17°C° 0 mm 2 m/s 768 mm Hg 49%
11:00 +19°C° 0 mm 2 m/s 767 mm Hg 46%
12:00 +21°C° 0 mm 1 m/s 766 mm Hg 43%
13:00 +23°C° 0 mm 1 m/s 766 mm Hg 41%
14:00 +22°C° 0 mm 1 m/s 766 mm Hg 43%
15:00 +21°C° 0 mm 2 m/s 766 mm Hg 46%
16:00 +20°C° 0 mm 2 m/s 766 mm Hg 49%
17:00 +19°C° 0 mm 2 m/s 766 mm Hg 57%
18:00 +17°C° 0 mm 2 m/s 767 mm Hg 65%
19:00 +15°C° 0 mm 2 m/s 767 mm Hg 73%
20:00 +15°C° 0 mm 2 m/s 767 mm Hg 75%
21:00 +14°C° 0 mm 2 m/s 768 mm Hg 76%
22:00 +14°C° 0 mm 2 m/s 768 mm Hg 78%
23:00 +13°C° 0 mm 2 m/s 768 mm Hg 78%

7 Luglio, Martedi

Tempo Temperatura Precipitazioni Vento Pressione Umidità
00:00 +13°C° 0 mm 2 m/s 768 mm Hg 79%
01:00 +12°C° 0 mm 2 m/s 767 mm Hg 80%
02:00 +12°C° 0 mm 2 m/s 767 mm Hg 81%
03:00 +12°C° 0 mm 2 m/s 767 mm Hg 81%
04:00 +10°C° 0 mm 2 m/s 767 mm Hg 81%
05:00 +10°C° 0 mm 2 m/s 767 mm Hg 82%
06:00 +10°C° 0 mm 2 m/s 768 mm Hg 82%
07:00 +10°C° 0 mm 2 m/s 768 mm Hg 83%
08:00 +13°C° 0 mm 2 m/s 768 mm Hg 74%
09:00 +16°C° 0 mm 2 m/s 768 mm Hg 66%
10:00 +18°C° 0 mm 2 m/s 768 mm Hg 58%
11:00 +19°C° 0 mm 2 m/s 768 mm Hg 55%
12:00 +21°C° 0 mm 2 m/s 767 mm Hg 52%
13:00 +22°C° 0 mm 3 m/s 767 mm Hg 49%
14:00 +22°C° 0 mm 3 m/s 767 mm Hg 53%
15:00 +21°C° 0 mm 3 m/s 767 mm Hg 57%
16:00 +20°C° 0 mm 4 m/s 766 mm Hg 61%
17:00 +19°C° 0 mm 4 m/s 767 mm Hg 66%
18:00 +18°C° 0 mm 3 m/s 767 mm Hg 72%
19:00 +16°C° 0 mm 3 m/s 768 mm Hg 77%
20:00 +16°C° 0 mm 3 m/s 768 mm Hg 78%
21:00 +14°C° 0 mm 3 m/s 768 mm Hg 79%
22:00 +13°C° 0 mm 3 m/s 768 mm Hg 80%
23:00 +13°C° 0 mm 3 m/s 768 mm Hg 81%
Mostrare altro